User: anonymous   Login
Location: Unspecified
(0.0000°N, 0.0000°E)
Time: 21:19:06
(UTC+00:00)
Language:

ISAT - Orbit

View from above orbital plane
View from above orbital plane
View from above satellite
View from above satellite

Ground track
Ground track

The orbit data is extracted from the following two-line orbital elements,

1 43879U 18111D   23275.73633585  .00012308  00000-0  89066-3 0  9998
2 43879  97.6331 178.7376 0015308 150.5913 209.6177 15.04058352258473
Epoch (UTC): 02 October 2023 17:40:19
Eccentricity: 0.0015308
inclination: 97.6331°
perigee height: 544 km
apogee height: 565 km
right ascension of ascending node: 178.7376°
argument of perigee: 150.5913°
revolutions per day: 15.04058352
mean anomaly at epoch: 209.6177°
orbit number at epoch: 25847

The dashed part of the orbit path shows where the satellite is in the earth's shadow,  

DLR